QPF
0.06 0.07 0.09 0.09 0.10 0.13 0.13 0.15 0.19 0.24 0.21 0.14 0.13 0.12 0.10 0.08 0.06 0.06 0.05 0.04 0.04 0.05 0.07 0.10 0.13 0.11 0.09 0.08 0.07 0.09 0.09 0.07 0.06 0.05 0.05 0.05 0.06 0.05 0.04 0.03 0.03 0.03 0.04
0.07 0.08 0.08 0.09 0.08 0.09 0.12 0.16 0.17 0.19 0.18 0.12 0.10 0.10 0.08 0.06 0.05 0.05 0.05 0.05 0.05 0.06 0.09 0.09 0.09 0.09 0.08 0.10 0.10 0.11 0.11 0.09 0.07 0.07 0.06 0.05 0.06 0.06 0.05 0.04 0.04 0.03 0.03
0.07 0.09 0.09 0.11 0.11 0.10 0.11 0.10 0.11 0.11 0.11 0.09 0.08 0.07 0.07 0.08 0.08 0.07 0.05 0.06 0.04 0.04 0.07 0.08 0.08 0.08 0.08 0.11 0.13 0.14 0.14 0.13 0.10 0.09 0.08 0.07 0.06 0.05 0.05 0.05 0.05 0.04 0.04
0.05 0.07 0.08 0.09 0.10 0.11 0.12 0.12 0.12 0.09 0.08 0.07 0.07 0.07 0.08 0.08 0.07 0.05 0.04 0.04 0.05 0.05 0.05 0.05 0.07 0.08 0.12 0.15 0.15 0.15 0.15 0.12 0.08 0.07 0.06 0.06 0.08 0.08 0.09 0.07 0.06 0.05 0.05
0.04 0.06 0.07 0.08 0.08 0.11 0.13 0.11 0.11 0.10 0.08 0.07 0.05 0.06 0.06 0.07 0.05 0.03 0.02 0.03 0.04 0.06 0.08 0.06 0.06 0.08 0.12 0.13 0.14 0.17 0.16 0.12 0.08 0.07 0.06 0.06 0.07 0.09 0.11 0.12 0.11 0.07 0.06
0.03 0.04 0.06 0.08 0.07 0.10 0.12 0.10 0.09 0.08 0.06 0.05 0.04 0.05 0.05 0.05 0.04 0.03 0.02 0.02 0.03 0.04 0.06 0.06 0.07 0.08 0.10 0.10 0.09 0.10 0.13 0.16 0.14 0.11 0.09 0.08 0.07 0.08 0.09 0.09 0.09 0.07 0.07
0.04 0.05 0.05 0.07 0.08 0.09 0.11 0.09 0.07 0.07 0.05 0.05 0.05 0.06 0.05 0.04 0.04 0.03 0.02 0.03 0.04 0.03 0.03 0.05 0.06 0.09 0.12 0.09 0.07 0.06 0.08 0.09 0.12 0.14 0.16 0.11 0.08 0.07 0.07 0.05 0.05 0.05 0.06
0.05 0.05 0.06 0.07 0.07 0.07 0.08 0.07 0.07 0.06 0.04 0.05 0.06 0.07 0.07 0.06 0.05 0.03 0.02 0.02 0.03 0.03 0.02 0.03 0.06 0.10 0.12 0.12 0.10 0.08 0.08 0.08 0.09 0.08 0.09 0.09 0.08 0.06 0.05 0.04 0.03 0.04 0.04
0.04 0.05 0.04 0.04 0.05 0.04 0.05 0.06 0.05 0.05 0.06 0.05 0.06 0.07 0.07 0.07 0.06 0.06 0.04 0.02 0.02 0.03 0.03 0.04 0.05 0.06 0.08 0.11 0.12 0.11 0.09 0.09 0.07 0.07 0.07 0.06 0.05 0.05 0.05 0.05 0.06 0.05 0.05
0.04 0.06 0.06 0.05 0.05 0.03 0.04 0.04 0.04 0.05 0.05 0.06 0.05 0.06 0.06 0.07 0.08 0.07 0.06 0.03 0.03 0.03 0.03 0.03 0.04 0.05 0.06 0.06 0.07 0.06 0.05 0.06 0.05 0.05 0.06 0.06 0.06 0.05 0.05 0.06 0.07 0.07 0.08
0.08 0.10 0.09 0.06 0.06 0.05 0.04 0.05 0.06 0.05 0.04 0.05 0.07 0.07 0.06 0.06 0.07 0.07 0.05 0.05 0.04 0.03 0.02 0.02 0.04 0.05 0.04 0.04 0.04 0.03 0.02 0.03 0.03 0.04 0.04 0.06 0.07 0.07 0.06 0.07 0.10 0.10 0.12
0.20 0.19 0.17 0.10 0.06 0.06 0.06 0.06 0.06 0.03 0.03 0.04 0.05 0.05 0.05 0.05 0.07 0.08 0.06 0.05 0.05 0.03 0.02 0.02 0.02 0.03 0.04 0.04 0.02 0.01 0.01 0.01 0.02 0.02 0.02 0.03 0.04 0.06 0.07 0.07 0.09 0.10 0.09
0.08 0.18 0.23 0.15 0.08 0.06 0.05 0.05 0.05 0.03 0.02 0.02 0.03 0.04 0.04 0.05 0.06 0.08 0.08 0.05 0.04 0.03 0.02 0.02 0.01 0.01 0.02 0.03 0.04 0.02 0.01 0.01 0.01 0.01 0.01 0.01 0.03 0.06 0.06 0.05 0.07 0.09 0.09
0.02 0.03 0.08 0.11 0.07 0.04 0.04 0.05 0.03 0.03 0.03 0.03 0.02 0.04 0.05 0.04 0.05 0.08 0.08 0.08 0.05 0.04 0.03 0.03 0.02 0.01 0.01 0.01 0.03 0.03 0.02 0.02 0.02 0.01 0.02 0.02 0.02 0.03 0.04 0.04 0.06 0.07 0.07
0.01 0.01 0.02 0.02 0.03 0.03 0.04 0.04 0.03 0.04 0.05 0.03 0.03 0.04 0.04 0.05 0.05 0.07 0.08 0.08 0.07 0.05 0.04 0.05 0.04 0.02 0.01 0.01 0.02 0.02 0.02 0.03 0.02 0.02 0.03 0.04 0.02 0.02 0.03 0.03 0.04 0.04 0.04
0.01 0.02 0.02 0.02 0.01 0.01 0.02 0.03 0.03 0.04 0.05 0.04 0.05 0.05 0.05 0.03 0.05 0.07 0.08 0.08 0.07 0.06 0.04 0.04 0.05 0.03 0.02 0.02 0.02 0.03 0.03 0.03 0.02 0.02 0.02 0.04 0.02 0.01 0.01 0.02 0.03 0.04 0.04
0.02 0.02 0.02 0.02 0.01 0.01 0.01 0.01 0.01 0.03 0.04 0.06 0.05 0.06 0.06 0.05 0.05 0.04 0.07 0.07 0.06 0.06 0.06 0.05 0.03 0.03 0.03 0.03 0.04 0.04 0.03 0.03 0.03 0.03 0.04 0.05 0.03 0.01 0.02 0.02 0.04 0.05 0.05
0.01 0.01 0.02 0.02 0.01 0.01 0.01 0.01 0.01 0.02 0.03 0.06 0.07 0.07 0.06 0.06 0.06 0.05 0.06 0.07 0.06 0.07 0.06 0.06 0.04 0.04 0.04 0.04 0.05 0.03 0.03 0.02 0.02 0.02 0.04 0.06 0.05 0.05 0.04 0.03 0.03 0.03 0.04
0.01 0.01 0.01 0.01 0.01 0.02 0.02 0.02 0.01 0.01 0.02 0.04 0.06 0.06 0.06 0.05 0.05 0.05 0.05 0.05 0.05 0.06 0.07 0.05 0.04 0.04 0.04 0.03 0.02 0.02 0.02 0.03 0.03 0.04 0.06 0.06 0.05 0.05 0.04 0.04 0.03 0.03 0.03
0.01 0.01 0.01 0.01 0.01 0.01 0.02 0.01 0.02 0.02 0.02 0.02 0.03 0.03 0.03 0.02 0.02 0.04 0.04 0.04 0.04 0.05 0.05 0.05 0.04 0.04 0.04 0.03 0.04 0.04 0.04 0.04 0.04 0.04 0.05 0.06 0.05 0.04 0.04 0.04 0.04 0.04 0.03
0.00 0.00 0.00 0.00 0.01 0.01 0.01 0.01 0.02 0.02 0.02 0.01 0.02 0.02 0.02 0.01 0.02 0.03 0.03 0.04 0.04 0.04 0.03 0.03 0.03 0.04 0.03 0.04 0.04 0.04 0.05 0.06 0.06 0.05 0.05 0.04 0.03 0.03 0.04 0.04 0.04 0.04 0.04
0.00 0.00 0.00 0.00 0.00 0.00 0.01 0.01 0.02 0.02 0.01 0.01 0.01 0.02 0.02 0.01 0.01 0.02 0.02 0.02 0.03 0.04 0.04 0.04 0.04 0.04 0.04 0.03 0.04 0.03 0.04 0.06 0.06 0.06 0.06 0.06 0.05 0.05 0.05 0.04 0.04 0.03 0.03
0.00 0.00 0.00 0.01 0.00 0.00 0.01 0.01 0.01 0.01 0.01 0.01 0.01 0.02 0.02 0.01 0.02 0.02 0.02 0.02 0.02 0.03 0.03 0.04 0.04 0.04 0.04 0.04 0.04 0.03 0.04 0.04 0.05 0.04 0.04 0.05 0.06 0.07 0.06 0.05 0.04 0.04 0.04
0.00 0.00 0.00 0.00 0.00 0.00 0.01 0.01 0.01 0.01 0.01 0.01 0.01 0.02 0.02 0.02 0.02 0.03 0.04 0.03 0.02 0.01 0.01 0.01 0.03 0.03 0.03 0.04 0.03 0.03 0.04 0.04 0.04 0.04 0.04 0.03 0.03 0.05 0.05 0.06 0.05 0.04 0.04
0.01 0.01 0.00 0.01 0.00 0.00 0.01 0.01 0.01 0.01 0.01 0.01 0.01 0.01 0.01 0.01 0.02 0.02 0.04 0.05 0.04 0.03 0.02 0.03 0.03 0.03 0.03 0.03 0.03 0.04 0.05 0.05 0.04 0.04 0.04 0.05 0.04 0.05 0.06 0.07 0.07 0.06 0.05
0.02 0.01 0.01 0.01 0.01 0.01 0.01 0.01 0.01 0.01 0.01 0.01 0.01 0.01 0.01 0.01 0.01 0.02 0.03 0.06 0.06 0.05 0.05 0.05 0.05 0.05 0.05 0.05 0.05 0.06 0.08 0.08 0.06 0.05 0.05 0.06 0.06 0.06 0.09 0.08 0.07 0.07 0.06
MSLP
1016.02 1016.51 1016.89 1017.18 1017.41 1017.60 1017.78 1017.96 1018.12 1018.24 1018.32 1018.34 1018.31 1018.26 1018.22 1018.24 1018.34 1018.57 1018.89 1019.29 1019.72 1020.13 1020.47 1020.73 1020.88 1020.96 1020.99 1021.01 1021.04 1021.12 1021.23 1021.37 1021.52 1021.66 1021.78 1021.87 1021.93 1021.98 1022.04 1022.10 1022.17 1022.25 1022.33
1016.43 1016.87 1017.21 1017.47 1017.68 1017.86 1018.03 1018.19 1018.33 1018.44 1018.48 1018.46 1018.38 1018.27 1018.18 1018.14 1018.19 1018.36 1018.64 1019.00 1019.41 1019.80 1020.15 1020.41 1020.60 1020.70 1020.77 1020.82 1020.89 1020.99 1021.12 1021.27 1021.42 1021.56 1021.67 1021.76 1021.82 1021.87 1021.92 1021.98 1022.06 1022.14 1022.23
1016.82 1017.21 1017.52 1017.77 1017.97 1018.15 1018.32 1018.47 1018.59 1018.66 1018.66 1018.58 1018.45 1018.28 1018.12 1018.01 1018.00 1018.11 1018.32 1018.63 1018.99 1019.35 1019.68 1019.95 1020.15 1020.29 1020.39 1020.48 1020.59 1020.71 1020.86 1021.02 1021.18 1021.31 1021.42 1021.50 1021.56 1021.61 1021.67 1021.74 1021.83 1021.93 1022.02
1017.14 1017.49 1017.78 1018.02 1018.23 1018.42 1018.59 1018.74 1018.84 1018.87 1018.83 1018.70 1018.51 1018.28 1018.07 1017.90 1017.82 1017.86 1018.00 1018.24 1018.53 1018.83 1019.12 1019.37 1019.57 1019.72 1019.85 1019.98 1020.12 1020.27 1020.44 1020.61 1020.77 1020.90 1021.01 1021.09 1021.15 1021.20 1021.27 1021.36 1021.47 1021.58 1021.70
1017.37 1017.68 1017.95 1018.20 1018.42 1018.62 1018.79 1018.93 1019.01 1019.02 1018.94 1018.78 1018.56 1018.30 1018.04 1017.84 1017.70 1017.67 1017.74 1017.89 1018.09 1018.31 1018.53 1018.73 1018.90 1019.04 1019.18 1019.33 1019.49 1019.67 1019.86 1020.04 1020.21 1020.34 1020.44 1020.52 1020.58 1020.64 1020.73 1020.83 1020.96 1021.11 1021.26
1017.48 1017.75 1018.01 1018.26 1018.49 1018.70 1018.88 1019.02 1019.09 1019.08 1018.99 1018.83 1018.60 1018.34 1018.08 1017.86 1017.70 1017.62 1017.61 1017.66 1017.75 1017.87 1017.98 1018.09 1018.20 1018.31 1018.44 1018.59 1018.76 1018.96 1019.16 1019.36 1019.53 1019.66 1019.76 1019.84 1019.90 1019.97 1020.06 1020.19 1020.34 1020.51 1020.68
1017.48 1017.72 1017.96 1018.21 1018.45 1018.67 1018.85 1018.99 1019.06 1019.05 1018.97 1018.83 1018.63 1018.41 1018.19 1017.99 1017.83 1017.71 1017.64 1017.59 1017.56 1017.54 1017.53 1017.53 1017.54 1017.59 1017.68 1017.82 1017.99 1018.20 1018.41 1018.61 1018.79 1018.92 1019.02 1019.09 1019.15 1019.22 1019.32 1019.46 1019.62 1019.80 1019.98
1017.38 1017.59 1017.82 1018.06 1018.30 1018.52 1018.71 1018.84 1018.92 1018.93 1018.88 1018.79 1018.66 1018.51 1018.36 1018.22 1018.08 1017.95 1017.82 1017.68 1017.53 1017.37 1017.21 1017.08 1016.99 1016.95 1016.99 1017.09 1017.25 1017.46 1017.68 1017.88 1018.05 1018.18 1018.27 1018.33 1018.39 1018.45 1018.55 1018.68 1018.84 1019.02 1019.19
1017.20 1017.39 1017.60 1017.84 1018.07 1018.29 1018.47 1018.60 1018.69 1018.73 1018.73 1018.70 1018.66 1018.61 1018.55 1018.48 1018.39 1018.27 1018.10 1017.88 1017.62 1017.33 1017.03 1016.76 1016.56 1016.43 1016.40 1016.47 1016.61 1016.81 1017.02 1017.22 1017.39 1017.51 1017.59 1017.63 1017.67 1017.72 1017.80 1017.91 1018.05 1018.20 1018.35
1016.98 1017.14 1017.35 1017.57 1017.79 1018.00 1018.17 1018.30 1018.39 1018.46 1018.50 1018.55 1018.60 1018.65 1018.69 1018.71 1018.68 1018.58 1018.39 1018.11 1017.76 1017.36 1016.95 1016.57 1016.26 1016.05 1015.97 1015.99 1016.11 1016.29 1016.49 1016.68 1016.84 1016.94 1017.00 1017.03 1017.04 1017.07 1017.12 1017.20 1017.30 1017.42 1017.53
1016.72 1016.87 1017.05 1017.26 1017.47 1017.66 1017.82 1017.94 1018.03 1018.12 1018.20 1018.30 1018.43 1018.57 1018.70 1018.80 1018.84 1018.77 1018.58 1018.28 1017.87 1017.40 1016.91 1016.45 1016.07 1015.80 1015.67 1015.66 1015.76 1015.92 1016.10 1016.28 1016.41 1016.50 1016.54 1016.54 1016.53 1016.53 1016.55 1016.59 1016.65 1016.72 1016.78
1016.41 1016.55 1016.72 1016.92 1017.12 1017.29 1017.43 1017.53 1017.62 1017.70 1017.81 1017.95 1018.12 1018.33 1018.53 1018.70 1018.79 1018.76 1018.60 1018.30 1017.88 1017.37 1016.85 1016.35 1015.94 1015.64 1015.49 1015.46 1015.53 1015.68 1015.84 1016.00 1016.12 1016.18 1016.20 1016.18 1016.15 1016.12 1016.11 1016.12 1016.14 1016.15 1016.15
1016.04 1016.17 1016.34 1016.53 1016.72 1016.87 1017.00 1017.08 1017.15 1017.22 1017.32 1017.47 1017.67 1017.91 1018.15 1018.37 1018.50 1018.52 1018.39 1018.12 1017.72 1017.24 1016.73 1016.24 1015.83 1015.54 1015.38 1015.34 1015.40 1015.53 1015.68 1015.81 1015.91 1015.96 1015.96 1015.92 1015.88 1015.84 1015.80 1015.78 1015.76 1015.73 1015.67
1015.59 1015.72 1015.89 1016.08 1016.26 1016.41 1016.52 1016.59 1016.64 1016.68 1016.76 1016.89 1017.08 1017.32 1017.58 1017.81 1017.98 1018.04 1017.96 1017.74 1017.40 1016.97 1016.52 1016.08 1015.71 1015.44 1015.30 1015.26 1015.32 1015.43 1015.55 1015.67 1015.74 1015.78 1015.77 1015.74 1015.69 1015.65 1015.60 1015.57 1015.52 1015.45 1015.33
1015.06 1015.20 1015.38 1015.57 1015.76 1015.91 1016.01 1016.07 1016.09 1016.11 1016.15 1016.25 1016.41 1016.62 1016.86 1017.10 1017.29 1017.38 1017.35 1017.20 1016.93 1016.59 1016.21 1015.84 1015.53 1015.31 1015.19 1015.17 1015.21 1015.31 1015.41 1015.50 1015.56 1015.59 1015.58 1015.56 1015.52 1015.49 1015.46 1015.42 1015.36 1015.26 1015.11
1014.47 1014.61 1014.80 1015.01 1015.21 1015.37 1015.48 1015.53 1015.53 1015.52 1015.53 1015.59 1015.70 1015.87 1016.08 1016.30 1016.49 1016.61 1016.63 1016.55 1016.37 1016.11 1015.82 1015.53 1015.29 1015.12 1015.02 1015.00 1015.04 1015.10 1015.18 1015.25 1015.30 1015.32 1015.32 1015.32 1015.31 1015.31 1015.30 1015.28 1015.22 1015.11 1014.94
1013.81 1013.97 1014.18 1014.41 1014.63 1014.81 1014.93 1014.99 1014.98 1014.96 1014.93 1014.94 1015.00 1015.13 1015.30 1015.49 1015.67 1015.80 1015.87 1015.84 1015.73 1015.56 1015.35 1015.14 1014.95 1014.82 1014.74 1014.71 1014.73 1014.77 1014.82 1014.86 1014.89 1014.91 1014.93 1014.95 1014.98 1015.01 1015.04 1015.05 1015.02 1014.92 1014.73
1013.13 1013.30 1013.53 1013.79 1014.03 1014.24 1014.38 1014.44 1014.44 1014.40 1014.35 1014.33 1014.35 1014.43 1014.55 1014.71 1014.88 1015.01 1015.10 1015.11 1015.06 1014.95 1014.81 1014.65 1014.51 1014.40 1014.32 1014.28 1014.27 1014.28 1014.29 1014.31 1014.32 1014.34 1014.37 1014.41 1014.48 1014.56 1014.63 1014.68 1014.68 1014.60 1014.44
1012.43 1012.62 1012.87 1013.15 1013.42 1013.64 1013.80 1013.88 1013.89 1013.84 1013.78 1013.73 1013.72 1013.76 1013.85 1013.97 1014.11 1014.24 1014.33 1014.37 1014.35 1014.29 1014.18 1014.07 1013.95 1013.84 1013.76 1013.70 1013.66 1013.63 1013.60 1013.59 1013.58 1013.59 1013.63 1013.69 1013.79 1013.91 1014.03 1014.12 1014.17 1014.14 1014.01
1011.75 1011.95 1012.21 1012.50 1012.78 1013.02 1013.19 1013.28 1013.30 1013.26 1013.19 1013.12 1013.09 1013.09 1013.15 1013.24 1013.36 1013.47 1013.55 1013.60 1013.60 1013.55 1013.47 1013.37 1013.26 1013.16 1013.06 1012.98 1012.91 1012.84 1012.78 1012.73 1012.70 1012.70 1012.73 1012.81 1012.93 1013.08 1013.24 1013.39 1013.48 1013.51 1013.44
1011.09 1011.30 1011.56 1011.85 1012.13 1012.36 1012.54 1012.63 1012.65 1012.61 1012.54 1012.46 1012.41 1012.40 1012.43 1012.49 1012.58 1012.67 1012.74 1012.78 1012.78 1012.74 1012.67 1012.58 1012.47 1012.37 1012.26 1012.16 1012.06 1011.96 1011.87 1011.80 1011.74 1011.72 1011.75 1011.83 1011.96 1012.13 1012.32 1012.51 1012.67 1012.76 1012.76
1010.49 1010.70 1010.94 1011.21 1011.47 1011.69 1011.84 1011.92 1011.94 1011.89 1011.82 1011.74 1011.68 1011.65 1011.65 1011.70 1011.76 1011.82 1011.87 1011.90 1011.89 1011.85 1011.79 1011.70 1011.60 1011.50 1011.39 1011.29 1011.18 1011.07 1010.96 1010.86 1010.78 1010.75 1010.76 1010.83 1010.96 1011.13 1011.35 1011.57 1011.78 1011.93 1012.01
1009.97 1010.15 1010.37 1010.61 1010.83 1011.01 1011.13 1011.19 1011.19 1011.13 1011.05 1010.96 1010.90 1010.85 1010.84 1010.86 1010.90 1010.94 1010.97 1010.97 1010.96 1010.91 1010.85 1010.78 1010.69 1010.60 1010.51 1010.42 1010.31 1010.20 1010.09 1009.98 1009.89 1009.83 1009.83 1009.88 1009.99 1010.17 1010.39 1010.64 1010.88 1011.10 1011.25
1009.56 1009.71 1009.89 1010.07 1010.25 1010.38 1010.46 1010.49 1010.46 1010.38 1010.29 1010.20 1010.12 1010.06 1010.04 1010.03 1010.04 1010.05 1010.06 1010.04 1010.01 1009.96 1009.91 1009.84 1009.78 1009.72 1009.65 1009.58 1009.50 1009.41 1009.31 1009.20 1009.11 1009.04 1009.01 1009.04 1009.14 1009.30 1009.52 1009.78 1010.05 1010.30 1010.52
1009.27 1009.38 1009.52 1009.65 1009.77 1009.85 1009.89 1009.87 1009.81 1009.72 1009.61 1009.51 1009.42 1009.35 1009.30 1009.27 1009.24 1009.22 1009.19 1009.14 1009.09 1009.03 1008.98 1008.93 1008.89 1008.86 1008.83 1008.80 1008.76 1008.69 1008.61 1008.52 1008.43 1008.36 1008.32 1008.34 1008.41 1008.56 1008.76 1009.02 1009.30 1009.58 1009.83
1009.10 1009.18 1009.27 1009.36 1009.43 1009.46 1009.45 1009.40 1009.32 1009.21 1009.09 1008.97 1008.86 1008.77 1008.69 1008.62 1008.55 1008.48 1008.39 1008.31 1008.22 1008.14 1008.08 1008.04 1008.02 1008.02 1008.03 1008.04 1008.03 1008.01 1007.97 1007.90 1007.83 1007.76 1007.72 1007.72 1007.78 1007.91 1008.10 1008.34 1008.62 1008.90 1009.18
Thickness
5774 5772 5770 5769 5769 5768 5767 5765 5765 5763 5762 5761 5761 5761 5760 5760 5759 5757 5754 5750 5748 5746 5745 5744 5743 5741 5740 5739 5738 5737 5736 5734 5733 5731 5730 5729 5728 5728 5726 5725 5724 5722 5721
5773 5771 5770 5769 5769 5768 5767 5765 5764 5764 5763 5762 5761 5760 5759 5759 5758 5756 5755 5752 5749 5747 5745 5744 5743 5741 5740 5739 5738 5737 5736 5734 5733 5731 5730 5729 5729 5728 5727 5725 5724 5722 5721
5773 5771 5771 5769 5769 5768 5766 5765 5764 5763 5762 5762 5761 5761 5759 5758 5757 5756 5755 5754 5752 5748 5746 5745 5743 5742 5741 5740 5739 5737 5736 5735 5733 5732 5730 5730 5729 5728 5727 5725 5724 5723 5721
5772 5771 5771 5770 5769 5768 5767 5765 5764 5762 5761 5761 5761 5761 5760 5758 5757 5756 5755 5754 5752 5752 5748 5745 5744 5743 5742 5741 5739 5738 5737 5736 5734 5733 5731 5730 5729 5728 5727 5725 5724 5723 5721
5772 5772 5771 5770 5769 5768 5767 5766 5764 5762 5760 5760 5761 5760 5760 5759 5758 5758 5756 5754 5752 5751 5750 5747 5744 5743 5742 5741 5740 5740 5738 5737 5735 5733 5732 5730 5729 5728 5727 5726 5724 5723 5722
5772 5772 5771 5769 5769 5767 5765 5764 5762 5761 5760 5760 5762 5760 5759 5760 5759 5758 5756 5755 5753 5751 5750 5749 5746 5745 5743 5741 5741 5741 5739 5738 5736 5734 5733 5731 5730 5729 5727 5726 5725 5723 5722
5773 5771 5772 5769 5768 5767 5765 5765 5763 5761 5760 5760 5758 5756 5759 5760 5758 5757 5756 5755 5754 5752 5749 5748 5747 5746 5745 5742 5741 5740 5739 5738 5737 5736 5734 5732 5731 5729 5728 5727 5725 5724 5722
5773 5773 5771 5770 5768 5766 5764 5763 5761 5761 5761 5760 5756 5752 5750 5752 5754 5758 5755 5754 5753 5752 5750 5749 5747 5745 5745 5744 5743 5740 5739 5738 5737 5736 5735 5733 5731 5730 5729 5727 5726 5725 5723
5772 5771 5771 5770 5769 5768 5765 5762 5762 5759 5757 5759 5759 5753 5748 5746 5749 5753 5753 5754 5752 5751 5751 5750 5748 5746 5744 5743 5742 5740 5739 5738 5737 5736 5735 5734 5732 5731 5730 5728 5727 5725 5724
5772 5771 5770 5769 5768 5768 5765 5764 5763 5760 5757 5756 5756 5755 5754 5751 5745 5745 5750 5752 5751 5749 5749 5750 5749 5746 5744 5743 5741 5740 5738 5737 5736 5735 5735 5733 5732 5731 5730 5728 5727 5726 5724
5772 5771 5769 5768 5767 5766 5765 5763 5761 5759 5759 5756 5755 5754 5752 5751 5750 5744 5742 5745 5748 5750 5749 5748 5747 5746 5744 5742 5741 5739 5737 5735 5735 5734 5733 5732 5731 5730 5729 5727 5726 5725 5723
5773 5771 5770 5768 5766 5766 5763 5761 5759 5758 5757 5755 5754 5754 5752 5749 5747 5745 5742 5742 5743 5746 5747 5746 5745 5744 5743 5741 5739 5736 5735 5733 5732 5732 5731 5730 5729 5728 5727 5726 5724 5723 5721
5772 5770 5770 5767 5766 5764 5762 5761 5759 5758 5756 5753 5752 5753 5754 5752 5751 5747 5743 5741 5741 5744 5744 5745 5744 5743 5742 5739 5737 5734 5732 5731 5730 5729 5728 5727 5726 5725 5724 5723 5722 5720 5719
5773 5770 5768 5766 5765 5763 5762 5760 5759 5757 5755 5753 5753 5751 5750 5752 5751 5749 5744 5740 5737 5739 5740 5740 5742 5740 5739 5737 5734 5731 5731 5728 5727 5726 5725 5724 5723 5722 5721 5720 5719 5718 5717
5772 5770 5768 5765 5764 5762 5760 5758 5757 5755 5753 5752 5751 5750 5749 5750 5749 5748 5746 5743 5736 5732 5733 5736 5736 5737 5735 5733 5730 5729 5728 5725 5724 5722 5721 5719 5718 5718 5717 5716 5716 5715 5714
5769 5767 5766 5764 5762 5760 5758 5756 5755 5753 5751 5749 5747 5746 5745 5748 5747 5746 5744 5742 5740 5734 5730 5734 5733 5734 5731 5731 5727 5726 5725 5722 5720 5718 5716 5715 5714 5713 5713 5713 5712 5711 5710
5767 5765 5763 5761 5759 5758 5756 5754 5753 5750 5748 5746 5745 5744 5742 5742 5743 5743 5741 5740 5738 5735 5729 5730 5732 5730 5726 5725 5724 5723 5722 5720 5719 5714 5713 5711 5710 5710 5709 5709 5708 5707 5706
5766 5763 5761 5759 5757 5755 5753 5751 5749 5748 5746 5743 5742 5741 5739 5740 5737 5738 5737 5736 5734 5731 5727 5722 5724 5724 5722 5721 5720 5718 5719 5718 5716 5712 5710 5708 5706 5705 5705 5704 5704 5703 5701
5764 5762 5759 5756 5754 5752 5750 5748 5746 5744 5743 5741 5739 5737 5736 5735 5733 5734 5732 5731 5730 5729 5725 5722 5721 5720 5719 5719 5716 5715 5715 5713 5712 5709 5706 5704 5702 5701 5700 5700 5699 5698 5697
5761 5758 5756 5753 5751 5749 5747 5745 5742 5741 5739 5737 5736 5735 5734 5732 5730 5729 5728 5726 5725 5723 5721 5719 5718 5717 5715 5715 5712 5711 5709 5709 5708 5707 5703 5701 5699 5697 5696 5695 5694 5694 5693
5759 5756 5753 5750 5748 5746 5744 5740 5738 5738 5735 5733 5733 5732 5731 5727 5725 5724 5725 5723 5720 5718 5718 5716 5715 5713 5711 5708 5707 5707 5705 5705 5704 5703 5701 5700 5698 5696 5694 5692 5690 5689 5688
5755 5753 5750 5747 5745 5744 5737 5733 5731 5733 5731 5729 5728 5728 5727 5724 5721 5717 5716 5713 5712 5712 5712 5711 5710 5708 5705 5705 5703 5702 5701 5699 5697 5699 5696 5696 5696 5694 5693 5691 5687 5685 5683
5752 5749 5747 5744 5741 5737 5731 5727 5724 5726 5726 5725 5724 5723 5724 5724 5719 5717 5713 5708 5707 5704 5703 5705 5706 5704 5703 5702 5699 5697 5695 5694 5693 5694 5691 5690 5691 5689 5689 5686 5683 5680 5678
5749 5746 5743 5740 5736 5732 5726 5722 5720 5721 5722 5720 5719 5718 5716 5716 5714 5711 5710 5709 5707 5706 5702 5700 5701 5701 5701 5699 5696 5695 5693 5691 5690 5690 5687 5684 5685 5684 5685 5682 5678 5675 5673
5744 5741 5739 5735 5732 5727 5721 5718 5714 5717 5717 5716 5715 5713 5711 5710 5706 5702 5702 5702 5702 5702 5699 5696 5695 5694 5693 5692 5691 5691 5689 5687 5686 5686 5684 5681 5680 5679 5678 5677 5673 5670 5667
5739 5737 5734 5731 5728 5725 5718 5713 5709 5715 5713 5713 5711 5709 5704 5703 5699 5695 5696 5696 5695 5695 5695 5694 5690 5689 5689 5688 5686 5685 5686 5684 5682 5680 5680 5675 5674 5673 5670 5671 5670 5665 5662